N42J KFLL-KJAX

Flight info

Callsign N42J
Flight time 1h 12m
Altitude 8500
Route KFLL/10L N0273F240 FRSBE2 STYMY DCT ORL DCT GWIIZ DCT HAMOC DCT WOLQU DCT KUYER DCT KJAX/14
Aircraft PC12/L-V/N

Departure

Time 2026-05-03 21:22
Airport Fort Lauderdale Hollywood International Airport (KFLL)

Arrival

Time 2026-05-03 22:34
Airport Jacksonville International Airport (KJAX)
Time Latitude Longitude Altitude Speed Heading
2026-05-03 21:04 26.07877 -80.15292 9 ft 0 kts 269°
2026-05-03 21:16 26.07877 -80.15295 9 ft 3 kts 269°
2026-05-03 21:16 26.07866 -80.15356 9 ft 11 kts 232°
2026-05-03 21:17 26.07813 -80.15430 9 ft 16 kts 269°
2026-05-03 21:17 26.07813 -80.15528 9 ft 21 kts 269°
2026-05-03 21:17 26.07813 -80.15778 9 ft 25 kts 270°
2026-05-03 21:17 26.07814 -80.15993 9 ft 30 kts 271°
2026-05-03 21:18 26.07816 -80.16207 9 ft 21 kts 272°
2026-05-03 21:18 26.07810 -80.16345 9 ft 13 kts 265°
2026-05-03 21:18 26.07805 -80.16480 9 ft 19 kts 271°
2026-05-03 21:18 26.07805 -80.16598 9 ft 11 kts 268°
2026-05-03 21:19 26.07785 -80.16634 9 ft 0 kts 213°
2026-05-03 21:21 26.07784 -80.16634 9 ft 0 kts 201°
2026-05-03 21:21 26.07746 -80.16638 9 ft 11 kts 175°
2026-05-03 21:21 26.07695 -80.16550 9 ft 18 kts 89°
2026-05-03 21:21 26.07695 -80.16213 9 ft 81 kts 90°
2026-05-03 21:22 26.07694 -80.15374 84 ft 123 kts 85°
2026-05-03 21:22 26.07682 -80.14332 359 ft 145 kts 86°
2026-05-03 21:22 26.07707 -80.13152 746 ft 157 kts 78°
2026-05-03 21:22 26.08213 -80.12097 1168 ft 163 kts 50°
2026-05-03 21:23 26.08969 -80.11094 1585 ft 169 kts 48°
2026-05-03 21:23 26.09738 -80.10027 1913 ft 182 kts 50°
2026-05-03 21:23 26.10559 -80.08852 1955 ft 205 kts 50°
2026-05-03 21:23 26.11476 -80.07533 1968 ft 224 kts 51°
2026-05-03 21:24 26.12474 -80.06103 1966 ft 238 kts 51°
2026-05-03 21:24 26.13668 -80.04816 1978 ft 245 kts 24°
2026-05-03 21:24 26.15353 -80.04517 1990 ft 250 kts
2026-05-03 21:24 26.17091 -80.04737 1986 ft 256 kts 339°
2026-05-03 21:25 26.18738 -80.05584 1984 ft 258 kts 338°
2026-05-03 21:25 26.20377 -80.06370 1988 ft 259 kts 338°
2026-05-03 21:25 26.22049 -80.07134 1970 ft 253 kts 340°
2026-05-03 21:25 26.23476 -80.08183 1983 ft 244 kts 308°
2026-05-03 21:26 26.24053 -80.09926 1992 ft 239 kts 283°
2026-05-03 21:26 26.24443 -80.11720 1978 ft 236 kts 286°
2026-05-03 21:26 26.24890 -80.13473 1977 ft 233 kts 289°
2026-05-03 21:26 26.25377 -80.15174 1977 ft 230 kts 290°
2026-05-03 21:27 26.26061 -80.16773 1977 ft 226 kts 302°
2026-05-03 21:27 26.26860 -80.18282 1979 ft 224 kts 303°
2026-05-03 21:27 26.27662 -80.19748 1978 ft 223 kts 304°
2026-05-03 21:27 26.28482 -80.21223 1977 ft 222 kts 304°
2026-05-03 21:28 26.29293 -80.22676 1979 ft 221 kts 304°
2026-05-03 21:28 26.30110 -80.24122 1978 ft 220 kts 304°
2026-05-03 21:28 26.30930 -80.25580 1978 ft 220 kts 304°
2026-05-03 21:28 26.31743 -80.27018 1978 ft 220 kts 304°
2026-05-03 21:29 26.32555 -80.28455 1980 ft 220 kts 304°
2026-05-03 21:29 26.33373 -80.29896 1980 ft 220 kts 305°
2026-05-03 21:29 26.34192 -80.31345 1981 ft 219 kts 304°
2026-05-03 21:29 26.35009 -80.32788 1981 ft 219 kts 305°
2026-05-03 21:30 26.35817 -80.34212 1981 ft 219 kts 305°
2026-05-03 21:30 26.36635 -80.35658 2041 ft 215 kts 305°
2026-05-03 21:30 26.37410 -80.37051 2396 ft 213 kts 303°
2026-05-03 21:30 26.38202 -80.38453 2729 ft 214 kts 303°
2026-05-03 21:31 26.38996 -80.39863 3066 ft 215 kts 303°
2026-05-03 21:31 26.39786 -80.41266 3399 ft 215 kts 303°
2026-05-03 21:31 26.40587 -80.42684 3748 ft 216 kts 302°
2026-05-03 21:31 26.41388 -80.44097 4086 ft 216 kts 301°
2026-05-03 21:32 26.42187 -80.45512 4420 ft 217 kts 301°
2026-05-03 21:32 26.42986 -80.46926 4750 ft 217 kts 300°
2026-05-03 21:32 26.43797 -80.48360 5089 ft 218 kts 300°
2026-05-03 21:32 26.44597 -80.49777 5434 ft 217 kts 299°
2026-05-03 21:33 26.45408 -80.51212 5767 ft 217 kts 298°
2026-05-03 21:33 26.46211 -80.52636 6094 ft 217 kts 298°
2026-05-03 21:33 26.47008 -80.54051 6418 ft 217 kts 298°
2026-05-03 21:33 26.47808 -80.55469 6749 ft 217 kts 297°
2026-05-03 21:34 26.48879 -80.56672 7036 ft 226 kts 328°
2026-05-03 21:34 26.50395 -80.57244 7364 ft 230 kts 338°
2026-05-03 21:34 26.51933 -80.57711 7689 ft 230 kts 339°
2026-05-03 21:34 26.53477 -80.58176 8016 ft 229 kts 338°
2026-05-03 21:35 26.55025 -80.58651 8346 ft 228 kts 338°
2026-05-03 21:35 26.56575 -80.59137 8453 ft 238 kts 338°
2026-05-03 21:35 26.58209 -80.59651 8471 ft 249 kts 339°
2026-05-03 21:35 26.59922 -80.60189 8481 ft 258 kts 339°
2026-05-03 21:36 26.61676 -80.60742 8483 ft 265 kts 339°
2026-05-03 21:36 26.63468 -80.61307 8480 ft 271 kts 339°
2026-05-03 21:36 26.65312 -80.61890 8480 ft 275 kts 339°
2026-05-03 21:36 26.67160 -80.62477 8477 ft 278 kts 339°
2026-05-03 21:37 26.69041 -80.63074 8476 ft 281 kts 339°
2026-05-03 21:37 26.70931 -80.63670 8478 ft 281 kts 339°
2026-05-03 21:37 26.72820 -80.64271 8484 ft 282 kts 339°
2026-05-03 21:37 26.74726 -80.64878 8484 ft 283 kts 339°
2026-05-03 21:38 26.76632 -80.65483 8493 ft 284 kts 338°
2026-05-03 21:38 26.78532 -80.66089 8493 ft 284 kts 339°
2026-05-03 21:38 26.80436 -80.66694 8493 ft 285 kts 338°
2026-05-03 21:38 26.82335 -80.67300 8492 ft 285 kts 338°
2026-05-03 21:39 26.84242 -80.67907 8485 ft 285 kts 338°
2026-05-03 21:39 26.86166 -80.68523 8478 ft 284 kts 338°
2026-05-03 21:39 26.88068 -80.69130 8482 ft 284 kts 339°
2026-05-03 21:39 26.89963 -80.69735 8496 ft 284 kts 338°
2026-05-03 21:40 26.91876 -80.70387 8500 ft 283 kts 335°
2026-05-03 21:40 26.93743 -80.71088 8495 ft 283 kts 335°
2026-05-03 21:40 26.95616 -80.71799 8494 ft 283 kts 336°
2026-05-03 21:40 26.97471 -80.72499 8496 ft 283 kts 336°
2026-05-03 21:41 26.99350 -80.73212 8492 ft 283 kts 335°
2026-05-03 21:41 27.01218 -80.73917 8494 ft 283 kts 335°
2026-05-03 21:41 27.03110 -80.74635 8495 ft 283 kts 336°
2026-05-03 21:41 27.04977 -80.75339 8496 ft 283 kts 335°
2026-05-03 21:42 27.06837 -80.76045 8498 ft 283 kts 336°
2026-05-03 21:42 27.08704 -80.76752 8496 ft 283 kts 335°
2026-05-03 21:42 27.10568 -80.77459 8499 ft 282 kts 336°
2026-05-03 21:42 27.12449 -80.78170 8499 ft 282 kts 335°
2026-05-03 21:43 27.14303 -80.78873 8497 ft 282 kts 336°
2026-05-03 21:43 27.16165 -80.79578 8497 ft 280 kts 335°
2026-05-03 21:43 27.18006 -80.80275 8498 ft 278 kts 336°
2026-05-03 21:43 27.19842 -80.80971 8499 ft 276 kts 335°
2026-05-03 21:44 27.21651 -80.81657 8503 ft 274 kts 335°
2026-05-03 21:44 27.23467 -80.82346 8504 ft 274 kts 335°
2026-05-03 21:44 27.25282 -80.83038 8504 ft 273 kts 336°
2026-05-03 21:44 27.27073 -80.83717 8501 ft 273 kts 335°
2026-05-03 21:45 27.28888 -80.84409 8503 ft 272 kts 335°
2026-05-03 21:45 27.30663 -80.85082 8503 ft 272 kts 336°
2026-05-03 21:45 27.32472 -80.85780 8505 ft 271 kts 334°
2026-05-03 21:45 27.34244 -80.86506 8503 ft 271 kts 334°
2026-05-03 21:46 27.35992 -80.87228 8769 ft 263 kts 334°
2026-05-03 21:46 27.37687 -80.87923 9056 ft 258 kts 334°
2026-05-03 21:46 27.39376 -80.88618 9341 ft 253 kts 333°
2026-05-03 21:46 27.41001 -80.89287 9623 ft 249 kts 333°
2026-05-03 21:47 27.42633 -80.89960 9910 ft 246 kts 333°
2026-05-03 21:47 27.44217 -80.90612 10192 ft 243 kts 333°
2026-05-03 21:47 27.45808 -80.91267 10440 ft 242 kts 332°
2026-05-03 21:47 27.47402 -80.91927 10491 ft 249 kts 332°
2026-05-03 21:48 27.49069 -80.92615 10500 ft 256 kts 333°
2026-05-03 21:48 27.50750 -80.93308 10500 ft 263 kts 333°
2026-05-03 21:48 27.52488 -80.94024 10501 ft 267 kts 333°
2026-05-03 21:48 27.54264 -80.94756 10501 ft 271 kts 333°
2026-05-03 21:49 27.56037 -80.95485 10498 ft 274 kts 333°
2026-05-03 21:49 27.57854 -80.96233 10501 ft 277 kts 333°
2026-05-03 21:49 27.59665 -80.96978 10497 ft 278 kts 333°
2026-05-03 21:49 27.61506 -80.97736 10500 ft 280 kts 333°
2026-05-03 21:50 27.63326 -80.98487 10499 ft 281 kts 333°
2026-05-03 21:50 27.65176 -80.99250 10503 ft 281 kts 333°
2026-05-03 21:50 27.67006 -81.00005 10500 ft 282 kts 333°
2026-05-03 21:50 27.68854 -81.00769 10500 ft 281 kts 333°
2026-05-03 21:51 27.70690 -81.01527 10502 ft 281 kts 333°
2026-05-03 21:51 27.72520 -81.02284 10498 ft 280 kts 333°
2026-05-03 21:51 27.74368 -81.03046 10499 ft 279 kts 333°
2026-05-03 21:51 27.76192 -81.03803 10504 ft 279 kts 333°
2026-05-03 21:52 27.78005 -81.04552 10502 ft 280 kts 333°
2026-05-03 21:52 27.79837 -81.05312 10500 ft 280 kts 333°
2026-05-03 21:52 27.81682 -81.06078 10497 ft 280 kts 333°
2026-05-03 21:52 27.83507 -81.06834 10494 ft 280 kts 333°
2026-05-03 21:53 27.85326 -81.07587 10500 ft 279 kts 333°
2026-05-03 21:53 27.87153 -81.08346 10502 ft 279 kts 333°
2026-05-03 21:53 27.88972 -81.09100 10497 ft 279 kts 333°
2026-05-03 21:53 27.90810 -81.09862 10498 ft 279 kts 333°
2026-05-03 21:54 27.92647 -81.10625 10497 ft 279 kts 333°
2026-05-03 21:54 27.94460 -81.11378 10495 ft 278 kts 333°
2026-05-03 21:54 27.96274 -81.12133 10501 ft 278 kts 333°
2026-05-03 21:54 27.98086 -81.12886 10496 ft 278 kts 333°
2026-05-03 21:55 27.99928 -81.13652 10496 ft 278 kts 333°
2026-05-03 21:55 28.01743 -81.14407 10498 ft 277 kts 333°
2026-05-03 21:55 28.03559 -81.15160 10487 ft 278 kts 334°
2026-05-03 21:55 28.05422 -81.15769 10502 ft 277 kts 333°
2026-05-03 21:56 28.07255 -81.16457 10504 ft 278 kts 334°
2026-05-03 21:56 28.09110 -81.17147 10503 ft 279 kts 335°
2026-05-03 21:56 28.10921 -81.17812 10500 ft 279 kts 335°
2026-05-03 21:56 28.12820 -81.18507 10433 ft 281 kts 335°
2026-05-03 21:57 28.14695 -81.19187 10418 ft 281 kts 336°
2026-05-03 21:57 28.16537 -81.19856 10417 ft 280 kts 336°
2026-05-03 21:57 28.18403 -81.20531 10411 ft 279 kts 335°
2026-05-03 21:57 28.20250 -81.21201 10420 ft 278 kts 335°
2026-05-03 21:58 28.22094 -81.21870 10423 ft 278 kts 335°
2026-05-03 21:58 28.23945 -81.22540 10431 ft 278 kts 335°
2026-05-03 21:58 28.25794 -81.23209 10427 ft 278 kts 335°
2026-05-03 21:58 28.27635 -81.23876 10426 ft 278 kts 335°
2026-05-03 21:59 28.29485 -81.24548 10432 ft 278 kts 335°
2026-05-03 21:59 28.31342 -81.25222 10434 ft 277 kts 335°
2026-05-03 21:59 28.33175 -81.25888 10437 ft 277 kts 335°
2026-05-03 21:59 28.35018 -81.26556 10437 ft 277 kts 335°
2026-05-03 22:00 28.36851 -81.27223 10429 ft 278 kts 335°
2026-05-03 22:00 28.38717 -81.27902 10427 ft 278 kts 335°
2026-05-03 22:00 28.40566 -81.28571 10434 ft 278 kts 335°
2026-05-03 22:00 28.42414 -81.29245 10437 ft 278 kts 335°
2026-05-03 22:01 28.44257 -81.29916 10439 ft 278 kts 335°
2026-05-03 22:01 28.46091 -81.30580 10442 ft 277 kts 335°
2026-05-03 22:01 28.47934 -81.31252 10440 ft 277 kts 335°
2026-05-03 22:01 28.49783 -81.31925 10437 ft 277 kts 335°
2026-05-03 22:02 28.51609 -81.32592 10436 ft 277 kts 335°
2026-05-03 22:02 28.53476 -81.33272 10438 ft 277 kts 335°
2026-05-03 22:02 28.55328 -81.33848 10432 ft 281 kts 340°
2026-05-03 22:02 28.57257 -81.34349 10440 ft 280 kts 340°
2026-05-03 22:03 28.59149 -81.34836 10443 ft 280 kts 340°
2026-05-03 22:03 28.61064 -81.35329 10438 ft 280 kts 340°
2026-05-03 22:03 28.62966 -81.35822 10437 ft 280 kts 340°
2026-05-03 22:03 28.64880 -81.36319 10439 ft 280 kts 340°
2026-05-03 22:04 28.66762 -81.36805 10439 ft 280 kts 339°
2026-05-03 22:04 28.68680 -81.37305 10442 ft 280 kts 340°
2026-05-03 22:04 28.70584 -81.37801 10438 ft 280 kts 340°
2026-05-03 22:04 28.72510 -81.38302 10434 ft 280 kts 340°
2026-05-03 22:05 28.74405 -81.38794 10435 ft 280 kts 339°
2026-05-03 22:05 28.76306 -81.39291 10434 ft 279 kts 340°
2026-05-03 22:05 28.78229 -81.39789 10439 ft 279 kts 340°
2026-05-03 22:05 28.80129 -81.40286 10435 ft 279 kts 340°
2026-05-03 22:06 28.82026 -81.40782 10444 ft 279 kts 340°
2026-05-03 22:06 28.83896 -81.41267 10466 ft 278 kts 340°
2026-05-03 22:06 28.85793 -81.41764 10466 ft 279 kts 340°
2026-05-03 22:06 28.87710 -81.42265 10461 ft 279 kts 340°
2026-05-03 22:07 28.89603 -81.42761 10473 ft 279 kts 340°
2026-05-03 22:07 28.91505 -81.43256 10460 ft 279 kts 339°
2026-05-03 22:07 28.93401 -81.43752 10465 ft 279 kts 340°
2026-05-03 22:07 28.95287 -81.44247 10456 ft 280 kts 339°
2026-05-03 22:08 28.97218 -81.44743 10256 ft 280 kts 340°
2026-05-03 22:08 28.99111 -81.45238 10052 ft 280 kts 340°
2026-05-03 22:08 29.01027 -81.45736 9851 ft 279 kts 340°
2026-05-03 22:08 29.02930 -81.46234 9647 ft 278 kts 340°
2026-05-03 22:09 29.04828 -81.46731 9442 ft 278 kts 340°
2026-05-03 22:09 29.06718 -81.47231 9244 ft 278 kts 341°
2026-05-03 22:09 29.08582 -81.47718 9057 ft 277 kts 341°
2026-05-03 22:10 29.12359 -81.48710 8651 ft 276 kts 341°
2026-05-03 22:10 29.14249 -81.49205 8498 ft 274 kts 342°
2026-05-03 22:10 29.16072 -81.49686 8474 ft 269 kts 341°
2026-05-03 22:10 29.17901 -81.50165 8464 ft 264 kts 342°
2026-05-03 22:11 29.19680 -81.50632 8430 ft 261 kts 341°
2026-05-03 22:11 29.21447 -81.51097 8423 ft 258 kts 341°
2026-05-03 22:11 29.23177 -81.51550 8435 ft 255 kts 342°
2026-05-03 22:11 29.24903 -81.52007 8436 ft 253 kts 341°
2026-05-03 22:12 29.26631 -81.52462 8432 ft 251 kts 341°
2026-05-03 22:12 29.28334 -81.52910 8433 ft 250 kts 342°
2026-05-03 22:12 29.30036 -81.53359 8440 ft 249 kts 342°
2026-05-03 22:12 29.31704 -81.53798 8444 ft 248 kts 341°
2026-05-03 22:13 29.33397 -81.54245 8447 ft 247 kts 341°
2026-05-03 22:13 29.35084 -81.54690 8447 ft 247 kts 342°
2026-05-03 22:13 29.36750 -81.55128 8439 ft 247 kts 341°
2026-05-03 22:13 29.38427 -81.55571 8445 ft 246 kts 341°
2026-05-03 22:14 29.40104 -81.56014 8441 ft 246 kts 342°
2026-05-03 22:14 29.41776 -81.56454 8441 ft 246 kts 341°
2026-05-03 22:14 29.43444 -81.56895 8443 ft 246 kts 341°
2026-05-03 22:14 29.45112 -81.57336 8443 ft 246 kts 342°
2026-05-03 22:15 29.46785 -81.57780 8447 ft 246 kts 342°
2026-05-03 22:15 29.48455 -81.58219 8445 ft 246 kts 342°
2026-05-03 22:15 29.50138 -81.58664 8446 ft 246 kts 342°
2026-05-03 22:15 29.51815 -81.59107 8444 ft 246 kts 341°
2026-05-03 22:16 29.53479 -81.59549 8441 ft 246 kts 342°
2026-05-03 22:16 29.55142 -81.59990 8442 ft 246 kts 342°
2026-05-03 22:16 29.56823 -81.60435 8442 ft 246 kts 342°
2026-05-03 22:16 29.58495 -81.60877 8445 ft 246 kts 342°
2026-05-03 22:17 29.60156 -81.61316 8450 ft 246 kts 341°
2026-05-03 22:17 29.61822 -81.61758 8450 ft 246 kts 342°
2026-05-03 22:17 29.63486 -81.62199 8446 ft 246 kts 341°
2026-05-03 22:17 29.65173 -81.62646 8451 ft 246 kts 342°
2026-05-03 22:18 29.66842 -81.63090 8446 ft 246 kts 342°
2026-05-03 22:18 29.68512 -81.63532 8445 ft 246 kts 342°
2026-05-03 22:18 29.70193 -81.63977 8455 ft 246 kts 342°
2026-05-03 22:18 29.71869 -81.64424 8459 ft 246 kts 342°
2026-05-03 22:19 29.73530 -81.64865 8461 ft 246 kts 342°
2026-05-03 22:19 29.75218 -81.65313 8462 ft 246 kts 341°
2026-05-03 22:19 29.76893 -81.65759 8455 ft 246 kts 342°
2026-05-03 22:19 29.78569 -81.66206 8464 ft 247 kts 341°
2026-05-03 22:20 29.80230 -81.66645 8470 ft 247 kts 341°
2026-05-03 22:20 29.81912 -81.67096 8466 ft 247 kts 342°
2026-05-03 22:20 29.83595 -81.67543 8464 ft 247 kts 341°
2026-05-03 22:20 29.85289 -81.67992 8319 ft 249 kts 342°
2026-05-03 22:21 29.86956 -81.68429 8121 ft 245 kts 342°
2026-05-03 22:21 29.88626 -81.68868 7931 ft 242 kts 342°
2026-05-03 22:21 29.90262 -81.69303 7740 ft 239 kts 342°
2026-05-03 22:21 29.91871 -81.69733 7550 ft 237 kts 343°
2026-05-03 22:22 29.93478 -81.70162 7358 ft 235 kts 343°
2026-05-03 22:22 29.95078 -81.70586 7164 ft 234 kts 343°
2026-05-03 22:22 29.96652 -81.71006 6965 ft 233 kts 343°
2026-05-03 22:22 29.98237 -81.71426 6764 ft 232 kts 345°
2026-05-03 22:23 29.99832 -81.71752 6561 ft 232 kts 347°
2026-05-03 22:23 30.01395 -81.72048 6469 ft 225 kts 348°
2026-05-03 22:23 30.02911 -81.72324 6470 ft 217 kts 348°
2026-05-03 22:23 30.04388 -81.72592 6475 ft 210 kts 348°
2026-05-03 22:24 30.05815 -81.72849 6473 ft 205 kts 348°
2026-05-03 22:24 30.07219 -81.73101 6474 ft 200 kts 348°
2026-05-03 22:24 30.08568 -81.73342 6475 ft 196 kts 348°
2026-05-03 22:24 30.09912 -81.73583 6481 ft 193 kts 348°
2026-05-03 22:25 30.11263 -81.73830 6355 ft 198 kts 349°
2026-05-03 22:25 30.12652 -81.74076 6171 ft 204 kts 349°
2026-05-03 22:25 30.14082 -81.74333 5976 ft 209 kts 349°
2026-05-03 22:25 30.15536 -81.74594 5783 ft 213 kts 349°
2026-05-03 22:26 30.17010 -81.74858 5592 ft 217 kts 349°
2026-05-03 22:26 30.18511 -81.75127 5399 ft 219 kts 350°
2026-05-03 22:26 30.20047 -81.75403 5204 ft 221 kts 350°
2026-05-03 22:26 30.21570 -81.75675 5012 ft 223 kts 350°
2026-05-03 22:27 30.23103 -81.75949 4822 ft 224 kts 350°
2026-05-03 22:27 30.24645 -81.76227 4629 ft 224 kts 350°
2026-05-03 22:27 30.26207 -81.76509 4433 ft 225 kts 351°
2026-05-03 22:27 30.27756 -81.76788 4237 ft 226 kts 351°
2026-05-03 22:28 30.29298 -81.77065 4050 ft 225 kts 351°
2026-05-03 22:28 30.30832 -81.77340 3996 ft 217 kts 351°
2026-05-03 22:28 30.32281 -81.77599 3986 ft 206 kts 351°
2026-05-03 22:28 30.33711 -81.77857 3789 ft 207 kts 351°
2026-05-03 22:29 30.35148 -81.78117 3593 ft 208 kts 352°
2026-05-03 22:29 30.36572 -81.78371 3399 ft 208 kts 352°
2026-05-03 22:29 30.38003 -81.78629 3205 ft 208 kts 352°
2026-05-03 22:29 30.39452 -81.78892 3007 ft 209 kts 352°
2026-05-03 22:30 30.40879 -81.79147 2816 ft 209 kts 353°
2026-05-03 22:30 30.42322 -81.79408 2620 ft 209 kts 352°
2026-05-03 22:30 30.43762 -81.79667 2427 ft 209 kts 352°
2026-05-03 22:30 30.45217 -81.79930 2231 ft 209 kts 353°
2026-05-03 22:31 30.46653 -81.80211 2036 ft 209 kts 352°
2026-05-03 22:31 30.48065 -81.80258 1880 ft 197 kts 22°
2026-05-03 22:31 30.49029 -81.79324 1884 ft 168 kts 52°
2026-05-03 22:31 30.49513 -81.78210 1835 ft 149 kts 73°
2026-05-03 22:32 30.49586 -81.77068 1671 ft 136 kts 105°
2026-05-03 22:32 30.49230 -81.76107 1553 ft 121 kts 114°
2026-05-03 22:32 30.48863 -81.75371 1492 ft 96 kts 109°
2026-05-03 22:32 30.48624 -81.74663 1159 ft 93 kts 98°
2026-05-03 22:33 30.48595 -81.73933 833 ft 92 kts 87°
2026-05-03 22:33 30.48679 -81.73221 555 ft 90 kts 68°
2026-05-03 22:33 30.48874 -81.72510 496 ft 96 kts 67°
2026-05-03 22:33 30.49089 -81.71768 380 ft 98 kts 70°
2026-05-03 22:34 30.49319 -81.71018 257 ft 97 kts 67°
2026-05-03 22:34 30.49532 -81.70315 119 ft 92 kts 68°
2026-05-03 22:34 30.49744 -81.69621 36 ft 88 kts 71°
2026-05-03 22:34 30.49904 -81.69089 23 ft 47 kts 70°
2026-05-03 22:35 30.49983 -81.68825 23 ft 30 kts 72°
2026-05-03 22:35 30.50030 -81.68608 23 ft 24 kts 91°
2026-05-03 22:35 30.49966 -81.68455 23 ft 5 kts 147°
2026-05-03 22:35 30.49965 -81.68454 23 ft 0 kts 147°
2026-05-03 22:36 30.49947 -81.68436 23 ft 9 kts 125°
2026-05-03 22:37 30.49957 -81.68333 23 ft 17 kts 69°
2026-05-03 22:37 30.50004 -81.68184 23 ft 21 kts 70°
2026-05-03 22:37 30.50050 -81.68034 23 ft 13 kts 78°
2026-05-03 22:37 30.49977 -81.67950 23 ft 16 kts 158°
2026-05-03 22:38 30.49877 -81.67911 23 ft 13 kts 157°
2026-05-03 22:38 30.49832 -81.67847 23 ft 8 kts 101°
2026-05-03 22:38 30.49803 -81.67769 23 ft 10 kts 163°
2026-05-03 22:38 30.49697 -81.67793 23 ft 19 kts 195°
2026-05-03 22:39 30.49650 -81.67801 23 ft 0 kts 190°